| time (UTC) | temp C | wind direction | speed KPH | gust KPH | rain 1hr cm | rain 24hr cm | rain mn cm | humidity % | barometer mb |
| 20260505081544 | 5 | 0.0 | 0.0 | 0.00 | 0.36 | 0.00 | 89 | 1007.0 | |
| 20260505080040 | 6 | 0.0 | 0.0 | 0.00 | 0.36 | 0.00 | 88 | 1006.8 | |
| 20260505074537 | 6 | 0.0 | 0.0 | 0.00 | 0.36 | 0.00 | 89 | 1006.9 | |
| 20260505073040 | 6 | 0.0 | 0.0 | 0.00 | 0.36 | 0.00 | 87 | 1006.8 | |
| 20260505071529 | 7 | 0.0 | 0.0 | 0.00 | 0.36 | 0.00 | 91 | 1006.7 | |
| 20260505070035 | 7 | 0.0 | 0.0 | 0.00 | 0.36 | 0.00 | 91 | 1006.4 | |
| 20260505064518 | 7 | 0.0 | 0.0 | 0.00 | 0.36 | 0.00 | 91 | 1006.1 | |
| 20260505063014 | 7 | 0.0 | 0.0 | 0.00 | 0.36 | 0.00 | 91 | 1006.1 | |
| 20260505061508 | 7 | 0.0 | 0.0 | 0.00 | 0.36 | 0.00 | 91 | 1006.0 | |
| 20260505060005 | 6 | 0.0 | 0.0 | 0.00 | 0.36 | 0.36 | 90 | 1005.9 | |
| 20260505054611 | 7 | 0.0 | 0.0 | 0.00 | 0.36 | 0.36 | 90 | 1005.9 | |
| 20260505053101 | 6 | 0.0 | 0.0 | 0.00 | 0.36 | 0.36 | 89 | 1005.8 | |
| 20260505051552 | 7 | 0.0 | 0.0 | 0.00 | 0.36 | 0.36 | 89 | 1005.5 | |
| 20260505041549 | 7 | 0.0 | 0.0 | 0.00 | 0.36 | 0.36 | 87 | 1005.6 | |
| 20260505040039 | 7 | 0.0 | 0.0 | 0.03 | 0.36 | 0.36 | 85 | 1005.5 | |
| 20260505034530 | 7 | 0.0 | 0.0 | 0.20 | 0.36 | 0.36 | 86 | 1005.5 | |
| 20260505033022 | 8 | 0.0 | 0.0 | 0.36 | 0.36 | 0.36 | 86 | 1005.5 | |
| 20260505031532 | 8 | 0.0 | 0.0 | 0.36 | 0.36 | 0.36 | 85 | 1005.6 | |
| 20260505030013 | 9 | 0.0 | 0.0 | 0.30 | 0.30 | 0.30 | 83 | 1005.4 | |
| 20260505024509 | 10 | 0.0 | 0.0 | 0.13 | 0.13 | 0.13 | 81 | 1005.0 | |
| 20260505023009 | 11 | 0.0 | 0.0 | 0.00 | 0.00 | 0.00 | 77 | 1004.9 | |
| 20260505021601 | 11 | 0.0 | 0.0 | 0.00 | 0.00 | 0.00 | 75 | 1004.3 | |
| 20260505020055 | 11 | 0.0 | 0.0 | 0.00 | 0.00 | 0.00 | 71 | 1004.1 | |
| 20260505014606 | 11 | 0.0 | 0.0 | 0.00 | 0.00 | 0.00 | 67 | 1003.9 | |
| 20260505013050 | 12 | 0.0 | 0.0 | 0.00 | 0.00 | 0.00 | 63 | 1003.6 | |
| 20260505011553 | 13 | 0.0 | 0.0 | 0.00 | 0.00 | 0.00 | 59 | 1003.6 | |
| 20260505010039 | 14 | 0.0 | 0.0 | 0.00 | 0.00 | 0.00 | 53 | 1003.3 | |
| 20260505004539 | 15 | 0.0 | 0.0 | 0.00 | 0.00 | 0.00 | 53 | 1003.1 | |
| 20260505003029 | 15 | 0.0 | 0.0 | 0.00 | 0.00 | 0.00 | 53 | 1002.9 | |
| 20260505001528 | 15 | 0.0 | 0.0 | 0.00 | 0.00 | 0.00 | 54 | 1002.9 | |
| 20260505000020 | 14 | 0.0 | 0.0 | 0.00 | 0.00 | 0.00 | 58 | 1002.7 | |
| 20260504234516 | 14 | 0.0 | 0.0 | 0.00 | 0.00 | 0.00 | 54 | 1002.6 | |
| 20260504233012 | 14 | 0.0 | 0.0 | 0.00 | 0.00 | 0.00 | 51 | 1002.5 | |
| 20260504231507 | 14 | 0.0 | 0.0 | 0.00 | 0.00 | 0.00 | 55 | 1002.3 | |
| 20260504230003 | 15 | 0.0 | 0.0 | 0.00 | 0.00 | 0.00 | 60 | 1002.2 | |
| 20260504224609 | 15 | 0.0 | 0.0 | 0.00 | 0.00 | 0.00 | 57 | 1002.5 | |
| 20260504223124 | 16 | 0.0 | 0.0 | 0.00 | 0.00 | 0.00 | 42 | 1002.7 | |
| 20260504221550 | 16 | 0.0 | 0.0 | 0.00 | 0.00 | 0.00 | 44 | 1002.5 | |
| 20260504220046 | 16 | 0.0 | 0.0 | 0.00 | 0.00 | 0.00 | 42 | 1001.4 | |
| 20260504214542 | 17 | 0.0 | 0.0 | 0.00 | 0.00 | 0.00 | 41 | 1000.7 | |
| 20260504213050 | 17 | 0.0 | 0.0 | 0.00 | 0.00 | 0.00 | 39 | 1001.2 | |
| 20260504211534 | 17 | 0.0 | 0.0 | 0.00 | 0.00 | 0.00 | 38 | 1000.9 | |
| 20260504210028 | 18 | 0.0 | 0.0 | 0.00 | 0.00 | 0.00 | 39 | 1000.9 | |
| 20260504204536 | 20 | 0.0 | 0.0 | 0.00 | 0.00 | 0.00 | 29 | 1001.1 | |
| 20260504203023 | 20 | 0.0 | 0.0 | 0.00 | 0.00 | 0.00 | 27 | 1000.4 | |
| 20260504201515 | 20 | 0.0 | 0.0 | 0.00 | 0.00 | 0.00 | 27 | 1000.2 | |
| 20260504200126 | 21 | 0.0 | 0.0 | 0.00 | 0.00 | 0.00 | 26 | 1000.2 | |
| 20260504194507 | 22 | 0.0 | 0.0 | 0.00 | 0.00 | 0.00 | 23 | 1000.1 | |
| 20260504193002 | 23 | 0.0 | 0.0 | 0.00 | 0.00 | 0.00 | 20 | 1000.0 | |
| 20260504191602 | 23 | 0.0 | 0.0 | 0.00 | 0.00 | 0.00 | 21 | 999.9 | |
| 20260504190054 | 23 | 0.0 | 0.0 | 0.00 | 0.00 | 0.00 | 20 | 999.9 | |
| 20260504184550 | 24 | 0.0 | 0.0 | 0.00 | 0.00 | 0.00 | 19 | 1000.0 | |
| 20260504183046 | 23 | 0.0 | 0.0 | 0.00 | 0.00 | 0.00 | 22 | 1000.3 | |
| 20260504181545 | 23 | 0.0 | 0.0 | 0.00 | 0.00 | 0.00 | 23 | 1000.6 | |
| 20260504180037 | 22 | 0.0 | 0.0 | 0.00 | 0.00 | 0.00 | 25 | 1001.2 | |
| 20260504174532 | 21 | 0.0 | 0.0 | 0.00 | 0.00 | 0.00 | 27 | 1001.5 | |
| 20260504173029 | 20 | 0.0 | 0.0 | 0.00 | 0.00 | 0.00 | 29 | 1001.7 | |
| 20260504171523 | 18 | 0.0 | 0.0 | 0.00 | 0.00 | 0.00 | 30 | 1001.9 | |
| 20260504160109 | 16 | 0.0 | 0.0 | 0.00 | 0.00 | 0.00 | 32 | 1001.9 | |
| 20260504090107 | 6 | 0.0 | 0.0 | 0.00 | 0.00 | 0.00 | 51 | 1001.8 |